Regional Weather Roundup
Issued by NWS

Home | Current Version | Previous Version | Graphics & Text | Print | Product List | Glossary On
Versions: 1 2 3 4 5 6 7 8 9 10 11 12 13 14 15 16 17 18 19 20 21 22 23 24 25 26 27 28 29 30 31 32 33 34 35 36 37 38 39 40 41 42 43 44 45 46 47 48 49 50
000
ASUS43 KMKX 260411
RWRWI

WISCONSIN REGIONAL WEATHER ROUNDUP
NATIONAL WEATHER SERVICE MILWAUKEE/SULLIVAN WI
1100 PM CDT THU AUG 25 2016

NOTE: "FAIR" INDICATES FEW OR NO CLOUDS BELOW 12,000 FEET WITH NO
SIGNIFICANT WEATHER AND/OR OBSTRUCTIONS TO VISIBILITY.

WIZ001-002-006>008-014>016-023>028-260500-
NORTHWEST WISCONSIN

CITY           SKY/WX    TMP DP  RH WIND       PRES   REMARKS
SUPERIOR ARPT  MOCLDY    61  54  78 W10       30.04S
ASHLAND        PTCLDY    58  54  86 SW6       30.03R
HAYWARD        CLOUDY    58  54  86 S3        30.08R
SIREN          CLOUDY    61  55  79 W5        30.08S
CUMBERLAND     CLEAR     54  52  94 W3        30.09S
RICE LAKE      CLEAR     56  52  85 CALM      30.10S
CHETEK         NOT AVBL
LADYSMITH      CLEAR     58  53  84 CALM      30.10R
EAU CLAIRE     CLEAR     59  55  87 SW3       30.09R
MENOMONIE      CLEAR     60  55  82 SW6       30.10R
NEW RICHMOND   CLEAR     57  53  87 SW5       30.11S
OSCEOLA        CLEAR     56  56 100 CALM      30.12S
$$

WIZ003>005-009-010-017-018-260500-
NORTH CENTRAL WISCONSIN

CITY           SKY/WX    TMP DP  RH WIND       PRES   REMARKS
MANITOWISH WTR NOT AVBL
ARBOR VITAE    CLEAR     59  53  79 W3        30.06R
WOODRUFF       CLEAR     59  53  79 W3        30.06R
RHINELANDER    CLEAR     55  54  96 W6        30.07R
EAGLE RIVER    CLEAR     54  49  82 W6        30.05R
LAND O LAKES   CLEAR     59  52  77 W6        30.05R
PHILLIPS       CLEAR     57  54  89 W5        30.07R
TOMAHAWK       CLEAR     54  51  90 CALM      30.08R
MEDFORD        CLEAR     57  57 100 W5        30.09R
MERRILL        CLEAR     58  55  88 W6        30.08S
$$

WIZ029-030-035-036-043>047-260500-
CENTRAL WISCONSIN

CITY           SKY/WX    TMP DP  RH WIND       PRES   REMARKS
WAUSAU         CLEAR     61  55  81 NW7       30.06R
MOSINEE        CLEAR     59  55  88 W7        30.09R
MARSHFIELD     CLEAR     59  54  83 W6        30.09R
STEVENS POINT  CLEAR     63  55  76 W5        30.09R
WAUPACA        CLEAR     67  58  70 W5        30.07R
WAUTOMA        CLEAR     61  59  93 W6        30.08R
WISC RAPIDS    CLEAR     62  56  80 W7        30.10R
CAMP DOUGLAS   CLEAR     57  55  91 W8        30.10R
$$

WIZ011>013-019>022-031-037>040-048>050-260500-
NORTHEAST WISCONSIN

CITY           SKY/WX    TMP DP  RH WIND       PRES   REMARKS
ANTIGO         CLEAR     57  54  89 CALM      30.07R
SHAWANO        CLEAR     66  56  71 W3        30.05R
OCONTO         NOT AVBL
STURGEON BAY   CLEAR     70  59  68 W10       30.02R
GREEN BAY      CLEAR     65  62  90 W9        30.04R
MANITOWOC      CLEAR     68  61  78 MISG      30.04R
APPLETON       CLEAR     63  61  94 W8        30.04R
CLINTONVILLE   CLEAR     64  54  68 W6        30.05R
OSHKOSH        CLEAR     67  61  81 W7        30.05R
$$

WIZ032>034-041-042-053>061-260500-
SOUTHWEST WISCONSIN

CITY           SKY/WX    TMP DP  RH WIND       PRES   REMARKS
LA CROSSE      CLEAR     67  59  75 W7        30.11R
SPARTA         CLEAR     57  56  97 CALM      30.12R
VIROQUA        CLEAR     62  59  90 W5        30.13R
BOSCOBEL       CLEAR     63  62  97 SW5       30.11R
PRAIRIE DU CHI CLEAR     65  61  87 CALM      30.11R
PLATTEVILLE    PTCLDY    64  64 100 SW5       30.12R
$$

WIZ056-057-062-063-064-067-068-260500-
SOUTH CENTRAL WISCONSIN

CITY           SKY/WX    TMP DP  RH WIND       PRES   REMARKS
REEDSBURG      NOT AVBL
BARABOO/DELLS  CLEAR     65  60  85 W6        30.09R
LONE ROCK      CLEAR     63  60  90 CALM      30.10R
MINERAL POINT  CLEAR     64  63  94 W3        30.12R
MADISON        CLOUDY    68  62  81 CALM      30.08R
MIDDLETON      CLOUDY    64  62  93 CALM      30.10R
WATERTOWN      CLEAR     65  64  97 SW3       30.08R
MONROE         PTCLDY    68  61  77 W8        30.11R
JANESVILLE     PTCLDY    68  64  88 CALM      30.09R
$$

WIZ051-052-058>065-066-070>072-260500-
SOUTHEAST WISCONSIN

CITY           SKY/WX    TMP DP  RH WIND       PRES   REMARKS
MILWAUKEE      MOCLDY    74  61  63 W7        30.07R
WAUKESHA       PTCLDY    66  59  77 W7        30.09S
MILWAUKEE/TIMM PTCLDY    68  57  68 W5        30.08R
RACINE         CLEAR     70  61  73 MISG      30.09R
BURLINGTON     CLOUDY    66  61  82 W3        30.09R
KENOSHA        CLEAR     65  62  90 W6        30.08R
FOND DU LAC    CLEAR     66  61  84 SW5       30.07R
SHEBOYGAN      CLEAR     66  60  81 W8        30.04R
WEST BEND      CLEAR     66  61  82 W6        30.07R
JUNEAU         CLEAR     64  61  89 SW3       30.09R
$$

LSZ147-162-260500-
LAKE SUPERIOR

STATION/POSITION TIME  TEMP    WIND        PRES    WAVE
                       AIR SEA DIR/SP/G            HT/PER
                 (UTC) (F)     (DEG/KT/KT) (MB)    (FT/S)
W MID LAKE BUOY  0350   66 67  270/ 19/ 23 1013.6R   4/ 6
DEVILS ISLAND    0300   65     280/ 19/ 21 1015.6R
PORT WING        0340   66     260/ 11/ 16 1016.9R
SAXON HARBOR     0340   63     210/  6/  8 1016.3S
$$

LMZ867-665-643>646-260500-
LAKE MICHIGAN

STATION/POSITION TIME  TEMP    WIND        PRES    WAVE
                       AIR SEA DIR/SP/G            HT/PER
                 (UTC) (F)     (DEG/KT/KT) (MB)    (FT/S)
CHAMBERS ISLAND  0300   71     220/  7/ 14 1015.2R
S GREEN BAY BUOY 0200   73 73  230/ 12/ 14 1015.1
N MID LAKE BUOY  0350   72 71  250/ 16/ 17 1013.9R   2/ 4
NORTHPORT PIER   0300   73     270/  5/ 12 1014.6R
SISTER BAY       0337   72     300/ 18/ 20   N/A
KEWAUNEE LAKESHO 0300   70     260/  7/ 10 1015.7R
SHEBOYGAN LAKESH 0400   69     230/  6/  6 1016.8R
PORT WASHINGTON  0300   71     260/  4/  7 1017.9R
ATWATER BUOY     0400   69 58  260/  6/  8   N/A
MILWAUKEE LAKESH 0310   74     280/  9/ 11   N/A
S MID LAKE BUOY  0350   74 75  270/  6/  6 1017.2R   1
KENOSHA   LAKESH 0400   72     280/  6/  8 1017.9R
$$

TC  - TEMPERATURE IN CELSIUS
VSB - VISIBILITY IN STATUTE MILES
WCI - WIND CHILL INDEX
HX  - HEAT INDEX





USA.gov is the U.S. government's official web portal to all federal, state and local government web resources and services.